Dato,Antall
08.03.2016,7872
09.03.2016,7942
10.03.2016,8187
11.03.2016,7965
12.03.2016,139
13.03.2016,96
14.03.2016,210
15.03.2016,195
16.03.2016,190
17.03.2016,184
18.03.2016,196
19.03.2016,103
20.03.2016,76
21.03.2016,90
22.03.2016,13
13.04.2016,1291
14.04.2016,1907
15.04.2016,1702
16.04.2016,1065
17.04.2016,750
18.04.2016,2068
19.04.2016,1850
20.04.2016,2039
21.04.2016,1982
22.04.2016,1751
23.04.2016,1030
24.04.2016,707
25.04.2016,1838
26.04.2016,1908
27.04.2016,2023
28.04.2016,1935
29.04.2016,1859
30.04.2016,25
02.05.2016,1469
03.05.2016,2194
04.05.2016,2122
05.05.2016,749
06.05.2016,1691
07.05.2016,1182
08.05.2016,24
09.05.2016,18
10.05.2016,3534
11.05.2016,6768
12.05.2016,6479
13.05.2016,5610
14.05.2016,4361
15.05.2016,2542
16.05.2016,3437
17.05.2016,2928
18.05.2016,38
19.05.2016,50
20.05.2016,1699
21.05.2016,2051
22.05.2016,1762
23.05.2016,2729
24.05.2016,2827
25.05.2016,2642
26.05.2016,2617
27.05.2016,2508
28.05.2016,1906
29.05.2016,1258
30.05.2016,3163
31.05.2016,2626
01.06.2016,2799
02.06.2016,2819
03.06.2016,2475
04.06.2016,63
06.06.2016,1251
07.06.2016,2644
08.06.2016,3703
09.06.2016,4722
10.06.2016,4593
11.06.2016,3295
12.06.2016,2421
13.06.2016,4434
14.06.2016,4488
15.06.2016,4716
16.06.2016,5121
17.06.2016,4481
18.06.2016,3216
19.06.2016,2405
20.06.2016,4456
21.06.2016,1357
22.06.2016,1094
23.06.2016,1080
24.06.2016,916
25.06.2016,520
26.06.2016,278
27.06.2016,889
28.06.2016,1013
29.06.2016,887
30.06.2016,891
01.07.2016,829
02.07.2016,435
03.07.2016,362
04.07.2016,888
05.07.2016,916
06.07.2016,881
07.07.2016,787
08.07.2016,722
09.07.2016,449
10.07.2016,253
11.07.2016,718
12.07.2016,734
13.07.2016,719
14.07.2016,698
15.07.2016,666
16.07.2016,384
17.07.2016,277
18.07.2016,740
19.07.2016,661
20.07.2016,816
21.07.2016,716
22.07.2016,573
23.07.2016,449
24.07.2016,368
25.07.2016,664
26.07.2016,677
27.07.2016,606
28.07.2016,650
29.07.2016,579
30.07.2016,412
31.07.2016,291
01.08.2016,792
02.08.2016,835
03.08.2016,788
04.08.2016,843
05.08.2016,804
06.08.2016,496
07.08.2016,316
08.08.2016,989
09.08.2016,172
10.08.2016,688
11.08.2016,997
12.08.2016,997
13.08.2016,557
14.08.2016,462
15.08.2016,1162
16.08.2016,1246
17.08.2016,1057
18.08.2016,1181
19.08.2016,1147
20.08.2016,493
21.08.2016,391
22.08.2016,1031
23.08.2016,1263
24.08.2016,1151
25.08.2016,1162
26.08.2016,1021
27.08.2016,574
28.08.2016,424
29.08.2016,1238
30.08.2016,1211
31.08.2016,1187
01.09.2016,1035
02.09.2016,696
03.09.2016,488
04.09.2016,374
05.09.2016,818
06.09.2016,1164
07.09.2016,1145
08.09.2016,1243
09.09.2016,1028
10.09.2016,469
11.09.2016,392
12.09.2016,1199
13.09.2016,1275
14.09.2016,1307
15.09.2016,1260
16.09.2016,1070
17.09.2016,589
18.09.2016,454
19.09.2016,1129
20.09.2016,1013
21.09.2016,948
22.09.2016,971
23.09.2016,916
24.09.2016,492
25.09.2016,342
26.09.2016,906
27.09.2016,942
28.09.2016,4
29.09.2016,1554
30.09.2016,1841
01.10.2016,1375
02.10.2016,662
03.10.2016,2116
04.10.2016,2322
05.10.2016,2429
06.10.2016,2333
07.10.2016,2358
08.10.2016,1344
09.10.2016,467
10.10.2016,2682
11.10.2016,2868
12.10.2016,2963
13.10.2016,2878
14.10.2016,2750
15.10.2016,1870
16.10.2016,822
17.10.2016,3343
18.10.2016,3174
19.10.2016,3369
20.10.2016,3284
21.10.2016,3493
22.10.2016,2433
23.10.2016,864
24.10.2016,3212
25.10.2016,3034
26.10.2016,2585
27.10.2016,3044
28.10.2016,3401
29.10.2016,2386
30.10.2016,1103
31.10.2016,2764
01.11.2016,3367
02.11.2016,3421
03.11.2016,3331
04.11.2016,3415
05.11.2016,2588
06.11.2016,1158
07.11.2016,3336
08.11.2016,3529
09.11.2016,3295
10.11.2016,3266
11.11.2016,3498
12.11.2016,2475
13.11.2016,996
14.11.2016,2250
15.11.2016,3542
16.11.2016,2887
17.11.2016,3589
18.11.2016,3158
19.11.2016,2194
20.11.2016,839
21.11.2016,3299
22.11.2016,2632
23.11.2016,2039
24.11.2016,1833
25.11.2016,1768
26.11.2016,1335
27.11.2016,534
28.11.2016,1858
29.11.2016,1490
30.11.2016,1697
01.12.2016,1677
02.12.2016,2069
03.12.2016,986
04.12.2016,469
05.12.2016,1746
06.12.2016,1984
07.12.2016,1186
08.12.2016,1954
09.12.2016,1542
10.12.2016,1361
11.12.2016,499
12.12.2016,1963
13.12.2016,940
14.12.2016,2134
15.12.2016,2300
16.12.2016,2081
17.12.2016,1133
18.12.2016,565
19.12.2016,2066
20.12.2016,2229
21.12.2016,1973
22.12.2016,2146
23.12.2016,1677
24.12.2016,379
25.12.2016,172
26.12.2016,174
27.12.2016,1011
28.12.2016,1142
29.12.2016,993
30.12.2016,820
